�N����,����,�~����,�C��,���x,�C��,����,���ϕ���,�ő�u�ԕ���,�ő厞����,���˗�,�I�_���x,�n�����x,�ő啗���N��,DTYPE
"23/07/26","00:10",0.0,25.9,85.6,1010.4,336.6,2.1,3.4,337.6,0.00,23.3,25.8,"00:04:24",1
"23/07/26","00:20",0.0,25.9,85.8,1010.7,322.5,1.7,3.3,337.2,0.00,23.4,25.7,"00:18:40",1
"23/07/26","00:30",0.0,25.8,85.9,1010.4,343.0,1.7,3.3,330.6,0.00,23.3,25.7,"00:22:32",1
"23/07/26","00:40",0.0,25.7,86.2,1010.7,348.2,1.7,2.8,344.8,0.00,23.3,25.7,"00:30:48",1
"23/07/26","00:50",0.0,25.7,86.6,1010.4,336.6,1.8,2.8,337.0,0.00,23.3,25.6,"00:48:08",1
"23/07/26","01:00",0.0,25.7,86.6,1010.7,328.2,2.0,3.4,341.2,0.00,23.3,25.7,"00:56:48",1
"23/07/26","01:10",0.0,25.6,86.8,1010.7,329.4,2.0,2.8,330.4,0.00,23.3,25.5,"01:01:44",1
"23/07/26","01:20",0.0,25.5,87.0,1010.2,341.5,1.6,2.9,350.1,0.00,23.2,25.6,"01:14:24",1
"23/07/26","01:30",0.0,25.5,87.3,1010.7,331.0,1.6,2.9,347.7,0.00,23.3,25.5,"01:25:12",1
"23/07/26","01:40",0.0,25.4,87.4,1010.4,326.5,1.5,2.7,320.5,0.00,23.2,25.6,"01:31:20",1
"23/07/26","01:50",0.0,25.4,87.4,1010.4,315.1,1.2,2.1,334.6,0.00,23.2,25.5,"01:42:00",1
"23/07/26","02:00",0.0,25.3,87.7,1010.4,284.5,1.0,1.3,247.0,0.00,23.2,25.5,"01:51:52",1
"23/07/26","02:10",0.0,25.3,87.9,1010.4,321.8,1.1,2.1,335.0,0.00,23.2,25.3,"02:01:44",1
"23/07/26","02:20",0.0,25.3,88.1,1010.4,299.1,1.2,2.7,321.8,0.00,23.2,25.5,"02:16:40",1
"23/07/26","02:30",0.0,25.2,88.2,1010.7,316.0,1.0,2.1,348.0,0.00,23.1,25.3,"02:24:32",1
"23/07/26","02:40",0.0,25.1,88.5,1010.7,288.7,0.7,1.3,250.6,0.00,23.1,25.3,"02:35:44",1
"23/07/26","02:50",0.0,25.2,88.7,1010.9,319.0,1.5,3.6,343.2,0.00,23.2,25.3,"02:47:36",1
"23/07/26","03:00",0.0,25.2,88.8,1010.7,333.3,1.5,3.2,342.3,0.00,23.3,25.2,"02:58:40",1
"23/07/26","03:10",0.0,25.2,88.9,1010.9,339.8,1.7,2.9,342.5,0.00,23.3,25.3,"03:04:40",1
"23/07/26","03:20",0.0,25.1,89.1,1010.9,340.0,1.5,2.9,348.9,0.00,23.2,25.3,"03:17:52",1
"23/07/26","03:30",0.0,25.1,89.1,1010.9,338.5,1.0,2.0,330.3,0.00,23.2,25.3,"03:28:40",1
"23/07/26","03:40",0.0,25.0,89.1,1011.2,288.5,0.7,1.6,317.3,0.00,23.1,25.3,"03:30:40",1
"23/07/26","03:50",0.0,25.0,89.3,1011.2,306.8,1.0,1.9,323.4,0.00,23.2,25.3,"03:47:52",1
"23/07/26","04:00",0.0,25.0,89.4,1011.4,326.0,1.2,2.2,323.0,0.00,23.2,25.2,"03:55:04",1
"23/07/26","04:10",0.0,25.0,89.6,1011.4,337.5,1.7,2.9,343.0,0.00,23.2,25.2,"04:07:28",1
"23/07/26","04:20",0.0,24.9,89.7,1011.4,338.4,1.5,2.9,347.6,0.00,23.1,25.2,"04:10:08",1
"23/07/26","04:30",0.0,24.8,89.9,1010.9,340.5,1.5,2.8,338.2,0.00,23.1,25.0,"04:21:28",1
"23/07/26","04:40",0.0,24.9,90.1,1011.4,334.4,1.7,2.6,335.2,0.00,23.2,25.0,"04:33:28",1
"23/07/26","04:50",0.0,24.8,90.2,1011.2,302.5,1.1,2.1,317.7,0.00,23.1,25.0,"04:48:00",1
"23/07/26","05:00",0.0,24.8,90.3,1011.6,299.0,1.0,2.1,340.7,0.00,23.1,25.0,"04:52:48",1
"23/07/26","05:10",0.0,24.8,90.4,1011.4,292.5,0.8,1.6,265.2,0.00,23.2,25.0,"05:06:08",1
"23/07/26","05:20",0.0,24.8,90.6,1011.6,319.1,1.5,2.8,350.6,0.00,23.2,25.0,"05:13:36",1
"23/07/26","05:30",0.0,24.9,90.6,1011.6,320.1,1.6,2.9,343.6,0.00,23.3,24.9,"05:28:08",1
"23/07/26","05:40",0.0,25.1,90.5,1011.6,332.1,1.8,3.2,334.6,0.00,23.5,24.9,"05:36:48",1
"23/07/26","05:50",0.0,25.1,90.4,1011.4,338.4,1.5,2.1,357.0,0.00,23.5,25.2,"05:44:40",1
"23/07/26","06:00",0.0,25.1,90.3,1011.6,339.4,1.2,2.7,342.9,0.00,23.4,25.0,"05:59:52",1
"23/07/26","06:10",0.0,25.3,90.3,1012.1,341.4,1.3,2.4,342.5,0.02,23.6,24.9,"06:03:52",1
"23/07/26","06:20",0.0,25.8,90.1,1011.9,338.1,1.2,2.9,344.3,0.04,24.1,24.8,"06:17:12",1
"23/07/26","06:30",0.0,26.7,89.3,1011.6,347.4,0.5,1.1,344.5,0.05,24.8,24.8,"06:20:32",1
"23/07/26","06:40",0.0,27.4,88.3,1012.1,7.9,0.5,1.2,339.6,0.07,25.3,24.8,"06:36:08",1
"23/07/26","06:50",0.0,28.3,86.7,1011.6,22.7,0.3,1.0,40.1,0.09,25.9,24.8,"06:40:02",1
"23/07/26","07:00",0.0,28.7,83.7,1011.6,34.2,0.2,0.9,194.4,0.10,25.7,24.9,"06:59:52",1
"23/07/26","07:10",0.0,29.1,81.3,1011.4,187.1,0.5,0.9,231.9,0.12,25.6,24.8,"07:06:08",1
"23/07/26","07:20",0.0,29.6,79.5,1011.6,161.5,0.2,0.9,145.6,0.14,25.7,24.7,"07:12:56",1
"23/07/26","07:30",0.0,30.1,77.3,1011.9,146.9,0.5,1.1,140.3,0.17,25.7,24.9,"07:28:24",1
"23/07/26","07:40",0.0,30.7,75.1,1012.3,149.4,0.3,0.9,203.5,0.19,25.8,25.0,"07:34:08",1
"23/07/26","07:50",0.0,31.2,72.4,1012.6,58.4,0.5,1.9,33.9,0.21,25.7,24.9,"07:47:36",1
"23/07/26","08:00",0.0,31.5,70.4,1012.8,20.8,0.8,1.7,345.9,0.24,25.5,25.0,"07:59:52",1
"23/07/26","08:10",0.0,31.1,70.8,1012.3,343.8,1.0,1.9,342.7,0.26,25.2,25.0,"08:03:20",1
"23/07/26","08:20",0.0,31.4,71.9,1012.6,178.6,0.7,2.1,205.2,0.28,25.8,25.0,"08:19:12",1
"23/07/26","08:30",0.0,31.9,69.8,1013.0,65.1,0.6,1.8,35.5,0.30,25.7,25.0,"08:26:48",1
"23/07/26","08:40",0.0,32.5,67.9,1013.0,56.0,0.6,2.4,119.7,0.32,25.8,25.2,"08:35:04",1
"23/07/26","08:50",0.0,32.9,65.9,1013.3,54.6,0.7,2.0,62.7,0.34,25.7,25.0,"08:49:36",1
"23/07/26","09:00",0.0,33.3,63.9,1013.3,74.2,0.7,2.2,0.5,0.36,25.6,25.1,"08:55:28",1
"23/07/26","09:10",0.0,33.7,65.3,1013.3,108.3,0.6,1.4,358.6,0.38,26.3,25.3,"09:02:00",1
"23/07/26","09:20",0.0,33.3,64.4,1013.5,171.3,0.8,2.7,219.5,0.39,25.7,25.3,"09:13:44",1
"23/07/26","09:30",0.0,33.4,63.9,1013.3,145.9,1.1,2.6,201.8,0.42,25.7,25.2,"09:23:28",1
"23/07/26","09:40",0.0,34.3,63.5,1013.3,54.3,0.6,1.9,142.2,0.42,26.4,25.1,"09:39:52",1
"23/07/26","09:50",0.0,34.1,61.3,1013.0,188.7,1.1,2.8,222.1,0.45,25.6,25.3,"09:45:20",1
"23/07/26","10:00",0.0,34.4,61.3,1013.3,77.1,0.8,2.0,351.0,0.47,25.9,25.6,"09:56:48",1
"23/07/26","10:10",0.0,34.5,59.5,1013.3,184.9,1.2,2.9,191.4,0.49,25.5,25.6,"10:07:04",1
"23/07/26","10:20",0.0,34.8,59.7,1013.0,157.3,1.2,4.3,240.8,0.50,25.8,25.6,"10:19:36",1
"23/07/26","10:30",0.0,35.0,60.7,1012.8,189.7,1.2,4.2,210.2,0.51,26.3,25.7,"10:23:28",1
"23/07/26","10:40",0.0,35.4,59.2,1012.8,127.5,1.0,2.5,149.0,0.52,26.3,25.9,"10:33:52",1
"23/07/26","10:50",0.0,35.7,56.2,1012.6,62.5,1.1,2.8,27.3,0.53,25.7,25.9,"10:42:48",1
"23/07/26","11:00",0.0,35.0,57.0,1012.8,193.4,1.8,4.2,236.3,0.54,25.2,26.0,"10:56:48",1
"23/07/26","11:10",0.0,35.3,57.1,1012.3,233.9,1.3,2.8,216.7,0.56,25.6,26.3,"11:05:28",1
"23/07/26","11:20",0.0,35.9,55.5,1012.6,338.5,0.8,2.6,318.7,0.56,25.6,26.2,"11:14:16",1
"23/07/26","11:30",0.0,36.5,56.3,1012.8,122.6,1.0,2.9,123.9,0.58,26.4,26.3,"11:26:40",1
"23/07/26","11:40",0.0,36.1,54.3,1012.6,225.0,1.5,4.4,238.5,0.59,25.4,26.4,"11:36:40",1
"23/07/26","11:50",0.0,35.8,54.7,1012.3,243.3,1.5,4.0,231.3,0.58,25.3,26.6,"11:45:36",1
"23/07/26","12:00",0.0,35.3,56.1,1012.1,251.0,1.5,4.4,246.5,0.38,25.3,26.7,"11:52:24",1
"23/07/26","12:10",0.0,35.3,57.3,1011.9,242.4,0.8,2.4,232.3,0.45,25.6,26.6,"12:00:56",1
"23/07/26","12:20",0.0,35.9,52.9,1011.9,226.1,1.1,2.8,169.8,0.56,24.8,26.9,"12:12:00",1
"23/07/26","12:30",0.0,37.0,53.4,1011.6,184.4,0.8,2.4,204.4,0.55,26.0,26.8,"12:26:08",1
"23/07/26","12:40",0.0,36.9,55.2,1011.6,173.7,1.5,3.1,229.1,0.56,26.5,26.8,"12:34:08",1
"23/07/26","12:50",0.0,36.9,49.5,1011.6,182.8,1.7,3.5,238.5,0.56,24.6,27.1,"12:41:04",1
"23/07/26","13:00",0.0,37.4,46.1,1011.9,194.9,1.1,3.9,198.3,0.55,23.9,27.1,"12:53:20",1
"23/07/26","13:10",0.0,37.6,47.8,1011.9,181.2,1.0,2.8,201.1,0.53,24.7,27.1,"13:09:28",1
"23/07/26","13:20",0.0,37.2,46.5,1011.6,238.3,1.6,3.4,220.9,0.53,23.9,27.2,"13:19:36",1
"23/07/26","13:30",0.0,37.4,46.9,1011.6,181.8,1.6,3.5,176.9,0.52,24.2,27.2,"13:28:08",1
"23/07/26","13:40",0.0,37.5,47.8,1011.4,194.8,1.7,4.4,235.2,0.51,24.6,27.2,"13:36:24",1
"23/07/26","13:50",0.0,37.4,45.4,1011.2,176.7,1.7,4.5,177.8,0.50,23.6,27.4,"13:46:48",1
"23/07/26","14:00",0.0,37.7,43.8,1010.9,217.0,2.0,4.2,239.0,0.49,23.3,27.5,"13:50:40",1
"23/07/26","14:10",0.0,37.8,43.5,1010.9,222.5,1.8,4.4,214.5,0.47,23.3,27.5,"14:04:56",1
"23/07/26","14:20",0.0,37.9,44.8,1010.9,217.2,1.7,4.3,217.6,0.46,23.9,27.5,"14:10:24",1
"23/07/26","14:30",0.0,38.2,44.1,1010.7,285.4,1.2,3.3,261.3,0.45,23.9,27.6,"14:28:56",1
"23/07/26","14:40",0.0,38.2,44.6,1010.4,217.7,1.2,3.6,232.6,0.44,24.1,27.6,"14:31:44",1
"23/07/26","14:50",0.0,38.6,42.6,1010.7,266.0,0.8,2.8,356.8,0.46,23.7,27.6,"14:43:44",1
"23/07/26","15:00",0.0,39.0,44.1,1010.2,296.2,1.1,3.6,342.7,0.47,24.6,27.7,"14:52:24",1
"23/07/26","15:10",0.0,38.4,45.2,1010.2,239.7,1.6,3.7,216.8,0.45,24.5,27.8,"15:03:28",1
"23/07/26","15:20",0.0,37.9,43.7,1010.2,316.1,1.3,3.3,344.9,0.35,23.5,27.8,"15:12:24",1
"23/07/26","15:30",0.0,37.5,45.2,1010.0,334.7,1.5,3.2,334.4,0.31,23.7,27.6,"15:20:56",1
"23/07/26","15:40",0.0,37.2,45.3,1010.0,304.2,1.2,2.7,219.1,0.18,23.4,28.0,"15:35:44",1
"23/07/26","15:50",0.0,36.4,44.8,1009.7,259.5,1.5,3.9,233.5,0.09,22.5,28.0,"15:45:12",1
"23/07/26","16:00",0.0,36.1,47.3,1009.0,257.8,1.1,2.7,234.5,0.06,23.1,27.8,"15:52:00",1
"23/07/26","16:10",0.0,35.3,53.3,1009.3,179.3,1.1,3.1,150.9,0.02,24.4,27.8,"16:08:56",1
"23/07/26","16:20",0.0,33.9,55.9,1009.3,83.5,1.0,2.2,106.5,0.00,23.9,27.7,"16:13:28",1
"23/07/26","16:30",0.0,32.8,58.3,1008.3,51.8,1.0,2.6,50.3,0.00,23.6,27.7,"16:26:24",1
"23/07/26","16:40",0.0,31.6,61.8,1007.8,359.7,1.6,3.6,329.3,0.00,23.4,27.8,"16:35:04",1
"23/07/26","16:50",0.0,31.0,63.7,1007.6,3.4,1.2,3.5,7.8,0.00,23.4,27.7,"16:44:48",1
"23/07/26","17:00",0.0,31.0,64.9,1007.1,352.9,0.8,2.0,0.2,0.00,23.7,27.6,"16:58:40",1
"23/07/26","17:10",0.0,30.8,65.9,1006.9,310.6,0.7,1.9,353.4,0.00,23.7,27.5,"17:02:48",1
"23/07/26","17:20",0.0,30.6,66.5,1006.9,335.9,1.5,2.9,346.3,0.01,23.7,27.5,"17:15:12",1
"23/07/26","17:30",0.0,30.7,67.1,1006.7,332.8,1.3,2.5,355.6,0.01,23.9,27.5,"17:21:20",1
"23/07/26","17:40",0.0,30.7,66.7,1006.9,194.2,0.5,1.7,116.4,0.01,23.8,27.5,"17:34:24",1
"23/07/26","17:50",0.0,30.7,66.9,1006.7,300.7,0.6,1.2,349.8,0.01,23.9,27.5,"17:40:02",1
"23/07/26","18:00",0.0,30.8,67.2,1006.9,341.7,0.6,1.8,9.1,0.00,24.1,27.3,"17:55:36",1
"23/07/26","18:10",0.0,30.8,67.5,1007.1,322.5,0.8,1.9,349.5,0.00,24.1,27.1,"18:00:02",1
"23/07/26","18:20",0.0,30.9,68.0,1006.4,349.9,1.3,2.5,330.4,0.00,24.3,27.3,"18:10:40",1
"23/07/26","18:30",0.0,30.4,69.8,1006.7,328.9,1.0,2.0,3.0,0.00,24.3,27.3,"18:20:08",1
"23/07/26","18:40",0.0,30.4,70.6,1006.7,319.9,1.3,2.7,339.6,0.00,24.5,27.1,"18:34:56",1
"23/07/26","18:50",0.0,30.5,70.4,1007.1,308.9,1.1,2.7,349.2,0.00,24.5,27.2,"18:46:00",1
"23/07/26","19:00",0.0,30.5,70.6,1007.4,355.0,1.0,1.9,346.0,0.00,24.6,27.2,"18:53:44",1
"23/07/26","19:10",0.0,30.3,70.8,1007.6,46.5,0.7,1.8,110.5,0.00,24.4,27.1,"19:02:24",1
"23/07/26","19:20",0.0,30.3,70.7,1007.4,341.8,1.3,2.8,346.9,0.00,24.4,27.0,"19:17:12",1
"23/07/26","19:30",0.0,30.1,71.6,1007.4,347.4,1.0,1.7,344.6,0.00,24.4,27.0,"19:21:28",1
"23/07/26","19:40",0.0,29.7,72.8,1007.8,318.6,0.8,1.7,336.6,0.00,24.3,27.0,"19:32:32",1
"23/07/26","19:50",0.0,29.4,74.0,1008.1,300.4,1.0,2.2,333.7,0.00,24.3,27.0,"19:49:04",1
"23/07/26","20:00",0.0,29.2,75.1,1007.8,348.3,1.3,3.1,351.0,0.00,24.4,26.8,"19:54:32",1
"23/07/26","20:10",0.0,28.9,76.3,1008.1,345.9,1.2,2.1,344.9,0.00,24.3,26.8,"20:08:40",1
"23/07/26","20:20",0.0,28.8,77.3,1008.3,333.3,1.6,2.8,337.3,0.00,24.5,27.0,"20:10:24",1
"23/07/26","20:30",0.0,28.6,78.1,1008.6,333.9,1.2,2.1,356.7,0.00,24.4,26.8,"20:26:16",1
"23/07/26","20:40",0.0,28.6,78.2,1009.0,329.8,2.0,2.9,336.4,0.00,24.5,26.6,"20:33:52",1
"23/07/26","20:50",0.0,28.6,77.9,1009.3,325.3,1.6,3.1,338.4,0.00,24.4,26.7,"20:49:04",1
"23/07/26","21:00",0.0,28.8,76.9,1009.0,333.3,1.8,2.8,323.4,0.00,24.4,26.7,"20:53:20",1
"23/07/26","21:10",0.0,29.0,76.3,1008.8,341.6,1.7,3.6,335.0,0.00,24.4,26.6,"21:03:12",1
"23/07/26","21:20",0.0,28.8,77.1,1009.0,343.4,1.3,2.7,351.2,0.00,24.4,26.6,"21:11:12",1
"23/07/26","21:30",0.0,28.4,78.2,1009.0,338.0,1.5,2.9,337.3,0.00,24.3,26.7,"21:24:56",1
"23/07/26","21:40",0.0,28.4,78.6,1009.3,341.4,1.3,2.9,348.8,0.00,24.4,26.5,"21:32:56",1
"23/07/26","21:50",0.0,28.2,78.8,1009.3,321.1,1.6,2.8,344.0,0.00,24.2,26.5,"21:46:08",1
"23/07/26","22:00",0.0,28.3,78.5,1009.5,327.5,1.6,2.7,336.9,0.00,24.2,26.2,"21:56:48",1
"23/07/26","22:10",0.0,28.2,78.7,1009.5,342.5,1.3,2.2,322.9,0.00,24.2,26.5,"22:01:04",1
"23/07/26","22:20",0.0,28.2,79.2,1009.5,342.9,1.2,3.1,345.0,0.00,24.3,26.3,"22:16:00",1
"23/07/26","22:30",0.0,28.0,79.7,1009.5,341.0,1.3,2.9,346.2,0.00,24.2,26.6,"22:28:16",1
"23/07/26","22:40",0.0,28.0,80.0,1009.5,336.4,1.3,2.7,343.5,0.00,24.3,26.3,"22:35:28",1
"23/07/26","22:50",0.0,27.9,80.2,1009.3,336.1,1.6,2.7,349.2,0.00,24.2,26.4,"22:40:48",1
"23/07/26","23:00",0.0,27.8,80.4,1009.5,339.6,1.5,2.7,337.6,0.00,24.2,26.3,"22:57:28",1
"23/07/26","23:10",0.0,27.7,80.6,1009.5,339.4,1.5,2.7,300.5,0.00,24.1,26.4,"23:02:00",1
"23/07/26","23:20",0.0,27.7,80.6,1009.5,340.5,1.7,3.9,349.8,0.00,24.1,26.4,"23:10:56",1
"23/07/26","23:30",0.0,27.8,80.3,1009.5,340.4,1.5,3.7,347.1,0.00,24.1,26.4,"23:28:56",1
"23/07/26","23:40",0.0,27.9,79.7,1009.5,335.1,2.0,4.8,343.2,0.00,24.1,26.4,"23:31:36",1
"23/07/26","23:50",0.0,27.8,79.8,1009.7,331.3,1.6,2.6,347.0,0.00,24.0,26.2,"23:46:24",1
"23/07/26","24:00",0.0,27.6,80.3,1009.7,331.7,1.5,2.5,352.4,0.00,23.9,26.1,"23:52:00",1
